,,,PA_Meas_PMT16A,,PR_Meas_QMR101_102,,RH_Meas_QMH101,,SR_Meas_QMS101,,TA_Meas_QMH101,,GenWind,,GenWind,
date,time,status,PA,status,PR,status,RH,status,SR,status,TA,status,DirAvg,status,SpdAvg,
2009-07-26, 00:00:04,VALID,1001.31,VALID,0,VALID,91.0443,VALID,0,VALID,24.4428,VALID,41,VALID,0.567578,
2009-07-26, 00:01:04,VALID,1001.31,VALID,0,VALID,90.9603,VALID,0,VALID,24.4037,VALID,41,VALID,0.601563,
2009-07-26, 00:02:04,VALID,1001.34,VALID,0,VALID,90.9527,VALID,0,VALID,24.3842,VALID,41,VALID,0.383594,
2009-07-26, 00:03:04,VALID,1001.34,VALID,0,VALID,90.9374,VALID,0,VALID,24.3647,VALID,41,VALID,0.448438,
2009-07-26, 00:04:04,VALID,1001.35,VALID,0,VALID,90.8383,VALID,0,VALID,24.3647,VALID,41,VALID,0.608594,
2009-07-26, 00:05:04,VALID,1001.33,VALID,0,VALID,90.6551,VALID,0,VALID,24.3452,VALID,41,VALID,0.584375,
2009-07-26, 00:06:04,VALID,1001.34,VALID,0,VALID,90.9298,VALID,0,VALID,24.3452,VALID,41,VALID,0.732031,
2009-07-26, 00:07:04,VALID,1001.33,VALID,0,VALID,91.1511,VALID,0,VALID,24.3842,VALID,35,VALID,0.866016,
2009-07-26, 00:08:04,VALID,1001.34,VALID,0,VALID,91.1587,VALID,0,VALID,24.3647,VALID,35,VALID,0.730859,
2009-07-26, 00:09:04,VALID,1001.31,VALID,0,VALID,91.1206,VALID,0,VALID,24.3452,VALID,33,VALID,0.723047,
2009-07-26, 00:10:04,VALID,1001.28,VALID,0,VALID,91.1206,VALID,0,VALID,24.3647,VALID,22,VALID,0.740625,
2009-07-26, 00:11:04,VALID,1001.3,VALID,0,VALID,91.1663,VALID,0,VALID,24.3452,VALID,22,VALID,0.755469,
2009-07-26, 00:12:04,VALID,1001.26,VALID,0,VALID,91.2197,VALID,0,VALID,24.3452,VALID,22,VALID,0.877734,
2009-07-26, 00:13:04,VALID,1001.28,VALID,0,VALID,91.4181,VALID,0,VALID,24.3452,VALID,2,VALID,0.567969,
2009-07-26, 00:14:04,VALID,1001.26,VALID,0,VALID,91.6317,VALID,0,VALID,24.3647,VALID,346,VALID,0.383594,
2009-07-26, 00:15:04,VALID,1001.26,VALID,0,VALID,91.7462,VALID,0,VALID,24.3452,VALID,346,VALID,0.514453,
2009-07-26, 00:16:04,VALID,1001.27,VALID,0,VALID,91.6088,VALID,0,VALID,24.3062,VALID,342,VALID,0.663672,
2009-07-26, 00:17:04,VALID,1001.25,VALID,0,VALID,91.5402,VALID,0,VALID,24.3062,VALID,340,VALID,0.551172,
2009-07-26, 00:18:04,VALID,1001.27,VALID,0,VALID,91.5402,VALID,0,VALID,24.3062,VALID,340,VALID,0.493359,
2009-07-26, 00:19:04,VALID,1001.27,VALID,0,VALID,91.6012,VALID,0,VALID,24.3062,VALID,340,VALID,0.515625,
2009-07-26, 00:20:04,VALID,1001.25,VALID,0,VALID,91.6012,VALID,0,VALID,24.3062,VALID,340,VALID,0.537109,
2009-07-26, 00:21:04,VALID,1001.26,VALID,0,VALID,91.6394,VALID,0,VALID,24.2848,VALID,340,VALID,0.573047,
2009-07-26, 00:22:04,VALID,1001.29,VALID,0,VALID,91.7385,VALID,0,VALID,24.3257,VALID,340,VALID,0.514453,
2009-07-26, 00:23:04,VALID,1001.28,VALID,0,VALID,91.7462,VALID,0,VALID,24.3452,VALID,340,VALID,0.78125,
2009-07-26, 00:24:04,VALID,1001.28,VALID,0,VALID,91.4944,VALID,0,VALID,24.3062,VALID,11,VALID,1.22344,
2009-07-26, 00:25:04,VALID,1001.29,VALID,0,VALID,91.4181,VALID,0,VALID,24.2866,VALID,4,VALID,1.23711,
2009-07-26, 00:26:04,VALID,1001.29,VALID,0,VALID,91.8225,VALID,0,VALID,24.2866,VALID,347,VALID,1.08438,
2009-07-26, 00:27:04,VALID,1001.26,VALID,0,VALID,91.6699,VALID,0,VALID,24.2476,VALID,347,VALID,1.28672,
2009-07-26, 00:28:04,VALID,1001.24,VALID,0,VALID,91.7538,VALID,0,VALID,24.1891,VALID,344,VALID,1.22148,
2009-07-26, 00:29:04,VALID,1001.24,VALID,0,VALID,91.7462,VALID,0,VALID,24.1696,VALID,360,VALID,1.1457,
2009-07-26, 00:30:04,VALID,1001.23,VALID,0,VALID,91.792,VALID,0,VALID,24.1305,VALID,342,VALID,1.11016,
2009-07-26, 00:31:04,VALID,1001.23,VALID,0,VALID,91.8835,VALID,0,VALID,24.111,VALID,351,VALID,0.700781,
2009-07-26, 00:32:04,VALID,1001.23,VALID,0,VALID,91.9751,VALID,0,VALID,24.0915,VALID,343,VALID,0.867188,
2009-07-26, 00:33:04,VALID,1001.17,VALID,0,VALID,91.9903,VALID,0,VALID,24.0525,VALID,343,VALID,0.756641,
2009-07-26, 00:34:04,VALID,1001.15,VALID,0,VALID,91.9751,VALID,0,VALID,24.0134,VALID,343,VALID,0.708203,
2009-07-26, 00:35:04,VALID,1001.13,VALID,0,VALID,92.1811,VALID,0,VALID,24.0134,VALID,343,VALID,0.350781,
2009-07-26, 00:36:04,VALID,1001.1,VALID,0,VALID,92.1506,VALID,0,VALID,23.9744,VALID,343,VALID,0.469141,
2009-07-26, 00:37:04,VALID,1001.09,VALID,0,VALID,92.1811,VALID,0,VALID,23.9549,VALID,343,VALID,0.267969,
2009-07-26, 00:38:04,VALID,1001.05,VALID,0,VALID,92.0743,VALID,0,VALID,23.914,VALID,343,VALID,0.349609,
2009-07-26, 00:39:04,VALID,1001.02,VALID,0,VALID,92.0437,VALID,0,VALID,23.9354,VALID,343,VALID,0.349219,
2009-07-26, 00:40:04,VALID,1000.98,VALID,0,VALID,92.0056,VALID,0,VALID,23.9354,VALID,343,VALID,0.323047,
2009-07-26, 00:41:04,VALID,1000.96,VALID,0,VALID,91.9598,VALID,0,VALID,23.9159,VALID,343,VALID,0,
2009-07-26, 00:42:04,VALID,1000.95,VALID,0,VALID,92.0285,VALID,0.112286,VALID,23.9159,VALID,343,VALID,0.288281,
2009-07-26, 00:43:04,VALID,1000.93,VALID,0,VALID,92.059,VALID,0,VALID,23.9159,VALID,343,VALID,0.424219,
2009-07-26, 00:44:04,VALID,1000.88,VALID,0,VALID,92.0056,VALID,0,VALID,23.8963,VALID,343,VALID,0.285156,
2009-07-26, 00:45:04,VALID,1000.88,VALID,0,VALID,92.0285,VALID,0,VALID,23.875,VALID,17,VALID,0.736328,
2009-07-26, 00:46:04,VALID,1000.83,VALID,0,VALID,92.12,VALID,0,VALID,23.9159,VALID,52,VALID,1.09844,
2009-07-26, 00:47:04,VALID,1000.81,VALID,0,VALID,92.0514,VALID,0,VALID,23.8963,VALID,30,VALID,0.947656,
2009-07-26, 00:48:04,VALID,1000.78,VALID,0,VALID,91.9522,VALID,0,VALID,23.8768,VALID,30,VALID,0.799219,
2009-07-26, 00:49:04,VALID,1000.79,VALID,0,VALID,91.792,VALID,0,VALID,23.8963,VALID,54,VALID,0.788281,
2009-07-26, 00:50:04,VALID,1000.76,VALID,0,VALID,91.8148,VALID,0,VALID,23.8963,VALID,64,VALID,1.05508,
2009-07-26, 00:51:04,VALID,1000.8,VALID,0,VALID,91.7004,VALID,0,VALID,23.9159,VALID,43,VALID,0.960156,
2009-07-26, 00:52:04,VALID,1000.81,VALID,0,VALID,91.6928,VALID,0,VALID,23.9159,VALID,22,VALID,0.667188,
2009-07-26, 00:53:04,VALID,1000.85,VALID,0,VALID,91.8148,VALID,0,VALID,23.9159,VALID,345,VALID,0.660156,
2009-07-26, 00:54:04,VALID,1000.83,VALID,0,VALID,91.8835,VALID,0,VALID,23.9159,VALID,345,VALID,0.296094,
2009-07-26, 00:55:04,VALID,1000.83,VALID,0,VALID,91.8835,VALID,0,VALID,23.9159,VALID,345,VALID,0.188672,
2009-07-26, 00:56:04,VALID,1000.84,VALID,0,VALID,91.8988,VALID,0,VALID,23.9159,VALID,345,VALID,0.189453,
2009-07-26, 00:57:04,VALID,1000.88,VALID,0,VALID,91.9217,VALID,0,VALID,23.9159,VALID,345,VALID,0.466406,
2009-07-26, 00:58:04,VALID,1000.82,VALID,0,VALID,91.9598,VALID,0,VALID,23.9159,VALID,345,VALID,0.304297,
2009-07-26, 00:59:04,VALID,1000.8,VALID,0,VALID,92.0056,VALID,0,VALID,23.9354,VALID,345,VALID,0.15,
2009-07-26, 01:00:04,VALID,1000.75,VALID,0,VALID,91.9674,VALID,0,VALID,23.914,VALID,345,VALID,0.341797,
2009-07-26, 01:01:04,VALID,1000.74,VALID,0,VALID,91.9369,VALID,0,VALID,23.9354,VALID,345,VALID,0.498047,
2009-07-26, 01:02:04,VALID,1000.7,VALID,0,VALID,91.9369,VALID,0,VALID,23.9354,VALID,345,VALID,0.59375,
2009-07-26, 01:03:04,VALID,1000.71,VALID,0,VALID,91.8835,VALID,0,VALID,23.9336,VALID,345,VALID,0.448828,
2009-07-26, 01:04:04,VALID,1000.68,VALID,0,VALID,91.9064,VALID,0,VALID,23.9549,VALID,345,VALID,0.479688,
2009-07-26, 01:05:04,VALID,1000.7,VALID,0,VALID,91.9827,VALID,0,VALID,23.9549,VALID,345,VALID,0.202734,
2009-07-26, 01:06:04,VALID,1000.66,VALID,0,VALID,92.0666,VALID,0,VALID,23.9549,VALID,345,VALID,0.249609,
2009-07-26, 01:07:04,VALID,1000.63,VALID,0,VALID,92.0361,VALID,0,VALID,23.9336,VALID,345,VALID,0.476563,
2009-07-26, 01:08:04,VALID,1000.62,VALID,0,VALID,92.0819,VALID,0,VALID,23.9336,VALID,345,VALID,0.535937,
2009-07-26, 01:09:04,VALID,1000.65,VALID,0,VALID,92.0971,VALID,0,VALID,23.9549,VALID,29,VALID,0.751953,
2009-07-26, 01:10:04,VALID,1000.63,VALID,0,VALID,92.1582,VALID,0,VALID,23.9336,VALID,45,VALID,0.952734,
2009-07-26, 01:11:04,VALID,1000.64,VALID,0,VALID,92.0437,VALID,0,VALID,23.9531,VALID,32,VALID,1.08594,
2009-07-26, 01:12:04,VALID,1000.65,VALID,0,VALID,92.1048,VALID,0,VALID,23.9549,VALID,22,VALID,1.03828,
2009-07-26, 01:13:04,VALID,1000.68,VALID,0,VALID,92.0895,VALID,0,VALID,23.9336,VALID,31,VALID,1.13555,
2009-07-26, 01:14:04,VALID,1000.71,VALID,0,VALID,92.1048,VALID,0,VALID,23.914,VALID,39,VALID,1.17344,
2009-07-26, 01:15:04,VALID,1000.73,VALID,0,VALID,92.1887,VALID,0,VALID,23.9354,VALID,43,VALID,1.13086,
2009-07-26, 01:16:04,VALID,1000.7,VALID,0,VALID,92.3566,VALID,0,VALID,23.9354,VALID,43,VALID,1.03633,
2009-07-26, 01:17:04,VALID,1000.7,VALID,0,VALID,92.265,VALID,0,VALID,23.914,VALID,42,VALID,0.766797,
2009-07-26, 01:18:04,VALID,1000.71,VALID,0,VALID,92.2268,VALID,0,VALID,23.914,VALID,46,VALID,1.0125,
2009-07-26, 01:19:04,VALID,1000.68,VALID,0,VALID,92.3184,VALID,0,VALID,23.9159,VALID,51,VALID,1.00781,
2009-07-26, 01:20:04,VALID,1000.72,VALID,0,VALID,92.3794,VALID,0,VALID,23.8945,VALID,52,VALID,0.714453,
2009-07-26, 01:21:04,VALID,1000.7,VALID,0,VALID,92.4481,VALID,0,VALID,23.8963,VALID,53,VALID,0.953906,
2009-07-26, 01:22:04,VALID,1000.7,VALID,0,VALID,92.532,VALID,0,VALID,23.8768,VALID,53,VALID,0.945703,
2009-07-26, 01:23:04,VALID,1000.68,VALID,0,VALID,92.5931,VALID,0,VALID,23.875,VALID,53,VALID,0.983594,
2009-07-26, 01:24:04,VALID,1000.69,VALID,0,VALID,92.5702,VALID,0,VALID,23.8555,VALID,49,VALID,0.760938,
2009-07-26, 01:25:04,VALID,1000.68,VALID,0,VALID,92.5091,VALID,0,VALID,23.8573,VALID,38,VALID,0.59375,
2009-07-26, 01:26:04,VALID,1000.66,VALID,0,VALID,92.5168,VALID,0,VALID,23.8165,VALID,38,VALID,0.592969,
2009-07-26, 01:27:04,VALID,1000.69,VALID,0,VALID,92.5168,VALID,0,VALID,23.797,VALID,32,VALID,0.418359,
2009-07-26, 01:28:04,VALID,1000.64,VALID,0,VALID,92.5778,VALID,0,VALID,23.797,VALID,32,VALID,0.344922,
2009-07-26, 01:29:04,VALID,1000.61,VALID,0,VALID,92.6694,VALID,0,VALID,23.7988,VALID,2,VALID,0.573047,
2009-07-26, 01:30:04,VALID,1000.59,VALID,0,VALID,92.8372,VALID,0,VALID,23.8183,VALID,360,VALID,0.476953,
2009-07-26, 01:31:04,VALID,1000.58,VALID,0,VALID,92.8067,VALID,0,VALID,23.8378,VALID,360,VALID,0.400391,
2009-07-26, 01:32:04,VALID,1000.55,VALID,0,VALID,92.8143,VALID,0,VALID,23.8378,VALID,360,VALID,0.18125,
2009-07-26, 01:33:04,VALID,1000.52,VALID,0,VALID,92.7533,VALID,0,VALID,23.8378,VALID,360,VALID,0.417969,
2009-07-26, 01:34:04,VALID,1000.54,VALID,0,VALID,92.7075,VALID,0,VALID,23.8183,VALID,48,VALID,0.708203,
2009-07-26, 01:35:04,VALID,1000.54,VALID,0,VALID,92.7075,VALID,0,VALID,23.8378,VALID,48,VALID,0.523438,
2009-07-26, 01:36:04,VALID,1000.55,VALID,0,VALID,92.6465,VALID,0,VALID,23.8378,VALID,48,VALID,0.213672,
2009-07-26, 01:37:04,VALID,1000.57,VALID,0,VALID,92.6541,VALID,0,VALID,23.8378,VALID,48,VALID,0.0609375,
2009-07-26, 01:38:04,VALID,1000.54,VALID,0,VALID,92.6312,VALID,0,VALID,23.8183,VALID,48,VALID,0.154687,
2009-07-26, 01:39:04,VALID,1000.53,VALID,0,VALID,92.6923,VALID,0,VALID,23.8183,VALID,48,VALID,0.180859,
2009-07-26, 01:40:04,VALID,1000.53,VALID,0,VALID,92.738,VALID,0,VALID,23.8183,VALID,48,VALID,0.192969,
2009-07-26, 01:41:04,VALID,1000.51,VALID,0,VALID,92.7533,VALID,0,VALID,23.7988,VALID,48,VALID,0.155469,
2009-07-26, 01:42:04,VALID,1000.5,VALID,0,VALID,92.7304,VALID,0,VALID,23.7988,VALID,48,VALID,0.000390625,
2009-07-26, 01:43:04,VALID,1000.48,VALID,0,VALID,92.7609,VALID,0,VALID,23.7988,VALID,48,VALID,0.177344,
2009-07-26, 01:44:04,VALID,1000.49,VALID,0,VALID,92.7914,VALID,0.112286,VALID,23.7988,VALID,48,VALID,0.116797,
2009-07-26, 01:45:04,VALID,1000.45,VALID,0,VALID,92.7914,VALID,0,VALID,23.7988,VALID,48,VALID,0.16875,
2009-07-26, 01:46:04,VALID,1000.46,VALID,0,VALID,92.7762,VALID,0,VALID,23.797,VALID,48,VALID,0.342187,
2009-07-26, 01:47:04,VALID,1000.47,VALID,0,VALID,92.6923,VALID,0,VALID,23.7988,VALID,48,VALID,0.321875,
2009-07-26, 01:48:04,VALID,1000.46,VALID,0,VALID,92.5473,VALID,0,VALID,23.7793,VALID,48,VALID,0.352344,
2009-07-26, 01:49:04,VALID,1000.43,VALID,0,VALID,92.4863,VALID,0,VALID,23.7793,VALID,48,VALID,0.383594,
2009-07-26, 01:50:04,VALID,1000.36,VALID,0,VALID,92.3413,VALID,0,VALID,23.8183,VALID,48,VALID,0.508984,
2009-07-26, 01:51:04,VALID,1000.33,VALID,0,VALID,92.3489,VALID,0,VALID,23.8378,VALID,78,VALID,0.802344,
2009-07-26, 01:52:04,VALID,1000.29,VALID,0,VALID,92.3642,VALID,0,VALID,23.8573,VALID,85,VALID,1.03164,
2009-07-26, 01:53:04,VALID,1000.27,VALID,0,VALID,92.204,VALID,0,VALID,23.8573,VALID,96,VALID,1.12734,
2009-07-26, 01:54:04,VALID,1000.24,VALID,0,VALID,92.265,VALID,0,VALID,23.8555,VALID,99,VALID,1.16953,
2009-07-26, 01:55:04,VALID,1000.24,VALID,0,VALID,92.1887,VALID,0,VALID,23.8378,VALID,106,VALID,1.13047,
2009-07-26, 01:56:04,VALID,1000.21,VALID,0,VALID,92.4176,VALID,0,VALID,23.8378,VALID,119,VALID,1.14336,
2009-07-26, 01:57:04,VALID,1000.22,VALID,0,VALID,92.5397,VALID,0,VALID,23.797,VALID,127,VALID,0.669922,
2009-07-26, 01:58:04,VALID,1000.2,VALID,0,VALID,92.5778,VALID,0,VALID,23.7988,VALID,129,VALID,0.583984,
2009-07-26, 01:59:04,VALID,1000.18,VALID,0,VALID,92.5702,VALID,0,VALID,23.7384,VALID,126,VALID,0.453125,
2009-07-26, 02:00:04,VALID,1000.17,VALID,0,VALID,92.5244,VALID,0,VALID,23.7402,VALID,126,VALID,0.295312,
2009-07-26, 02:01:04,VALID,1000.15,VALID,0,VALID,92.4481,VALID,0,VALID,23.7012,VALID,125,VALID,0.500391,
2009-07-26, 02:02:04,VALID,1000.11,VALID,0,VALID,92.4176,VALID,0,VALID,23.6622,VALID,121,VALID,0.459375,
2009-07-26, 02:03:04,VALID,1000.1,VALID,0,VALID,92.3947,VALID,0,VALID,23.6622,VALID,112,VALID,0.565625,
2009-07-26, 02:04:04,VALID,1000.06,VALID,0,VALID,92.4176,VALID,0,VALID,23.6622,VALID,91,VALID,0.499219,
2009-07-26, 02:05:04,VALID,1000.1,VALID,0,VALID,92.3642,VALID,0,VALID,23.6427,VALID,91,VALID,0.336328,
2009-07-26, 02:06:04,VALID,1000.13,VALID,0,VALID,92.3871,VALID,0,VALID,23.6427,VALID,91,VALID,0.182031,
2009-07-26, 02:07:04,VALID,1000.17,VALID,0,VALID,92.4786,VALID,0,VALID,23.6019,VALID,91,VALID,0.4375,
2009-07-26, 02:08:04,VALID,1000.18,VALID,0,VALID,92.5015,VALID,0,VALID,23.6232,VALID,91,VALID,0.635938,
2009-07-26, 02:09:04,VALID,1000.15,VALID,0,VALID,92.5168,VALID,0,VALID,23.6036,VALID,90,VALID,0.546484,
2009-07-26, 02:10:04,VALID,1000.16,VALID,0,VALID,92.532,VALID,0,VALID,23.6232,VALID,311,VALID,0.61875,
2009-07-26, 02:11:04,VALID,1000.14,VALID,0,VALID,92.5702,VALID,0,VALID,23.6232,VALID,311,VALID,0.570313,
2009-07-26, 02:12:04,VALID,1000.12,VALID,0,VALID,92.5778,VALID,0,VALID,23.6036,VALID,311,VALID,0.532422,
2009-07-26, 02:13:04,VALID,1000.09,VALID,0,VALID,92.5778,VALID,0,VALID,23.6036,VALID,311,VALID,0.407031,
2009-07-26, 02:14:04,VALID,1000.04,VALID,0,VALID,92.616,VALID,0,VALID,23.5823,VALID,311,VALID,0.369531,
2009-07-26, 02:15:04,VALID,1000.03,VALID,0,VALID,92.6312,VALID,0,VALID,23.6036,VALID,311,VALID,0.296875,
2009-07-26, 02:16:04,VALID,1000.03,VALID,0,VALID,92.6541,VALID,0,VALID,23.5841,VALID,311,VALID,0.0734375,
2009-07-26, 02:17:04,VALID,1000.02,VALID,0,VALID,92.6999,VALID,0,VALID,23.6036,VALID,311,VALID,0.242969,
2009-07-26, 02:18:04,VALID,1000.03,VALID,0,VALID,92.6999,VALID,0,VALID,23.5841,VALID,311,VALID,0.171484,
2009-07-26, 02:19:04,VALID,999.974,VALID,0,VALID,92.7075,VALID,0,VALID,23.6036,VALID,311,VALID,0.142188,
2009-07-26, 02:20:04,VALID,999.966,VALID,0,VALID,92.6388,VALID,0,VALID,23.5841,VALID,311,VALID,0,
2009-07-26, 02:21:04,VALID,999.968,VALID,0,VALID,92.6388,VALID,0,VALID,23.5646,VALID,311,VALID,0,
2009-07-26, 02:22:04,VALID,999.962,VALID,0,VALID,92.6541,VALID,0,VALID,23.6054,VALID,311,VALID,0,
2009-07-26, 02:23:04,VALID,999.959,VALID,0,VALID,92.6617,VALID,0,VALID,23.5841,VALID,311,VALID,0,
2009-07-26, 02:24:04,VALID,999.927,VALID,0,VALID,92.6083,VALID,0,VALID,23.5841,VALID,311,VALID,0,
2009-07-26, 02:25:04,VALID,999.914,VALID,0,VALID,92.6617,VALID,0,VALID,23.5646,VALID,311,VALID,0.377734,
2009-07-26, 02:26:04,VALID,999.881,VALID,0,VALID,92.7609,VALID,0,VALID,23.5841,VALID,311,VALID,0.44375,
2009-07-26, 02:27:04,VALID,999.877,VALID,0,VALID,92.6007,VALID,0,VALID,23.5664,VALID,325,VALID,0.469141,
2009-07-26, 02:28:04,VALID,999.876,VALID,0,VALID,92.5549,VALID,0,VALID,23.5451,VALID,334,VALID,0.498047,
2009-07-26, 02:29:04,VALID,999.859,VALID,0,VALID,92.5626,VALID,0,VALID,23.5451,VALID,337,VALID,0.687891,
2009-07-26, 02:30:04,VALID,999.873,VALID,0,VALID,92.4557,VALID,0,VALID,23.5451,VALID,338,VALID,0.528516,
2009-07-26, 02:31:04,VALID,999.864,VALID,0,VALID,92.532,VALID,0,VALID,23.5256,VALID,349,VALID,0.59375,
2009-07-26, 02:32:04,VALID,999.819,VALID,0,VALID,92.6236,VALID,0,VALID,23.5256,VALID,349,VALID,0.739062,
2009-07-26, 02:33:04,VALID,999.825,VALID,0,VALID,92.6388,VALID,0,VALID,23.5061,VALID,349,VALID,0.578125,
2009-07-26, 02:34:04,VALID,999.819,VALID,0,VALID,92.7228,VALID,0,VALID,23.4866,VALID,20,VALID,0.818359,
2009-07-26, 02:35:04,VALID,999.769,VALID,0,VALID,92.6846,VALID,0,VALID,23.4866,VALID,24,VALID,0.65625,
2009-07-26, 02:36:04,VALID,999.796,VALID,0,VALID,92.7304,VALID,0,VALID,23.4671,VALID,29,VALID,0.606641,
2009-07-26, 02:37:04,VALID,999.766,VALID,0,VALID,92.6923,VALID,0,VALID,23.4671,VALID,46,VALID,0.347656,
2009-07-26, 02:38:04,VALID,999.745,VALID,0,VALID,92.7228,VALID,0,VALID,23.4671,VALID,46,VALID,0.424219,
2009-07-26, 02:39:04,VALID,999.753,VALID,0,VALID,92.822,VALID,0,VALID,23.4671,VALID,46,VALID,0.498047,
2009-07-26, 02:40:04,VALID,999.767,VALID,0,VALID,92.9669,VALID,0,VALID,23.5061,VALID,46,VALID,0.552344,
2009-07-26, 02:41:04,VALID,999.732,VALID,0,VALID,92.7304,VALID,0,VALID,23.5256,VALID,88,VALID,0.671094,
2009-07-26, 02:42:04,VALID,999.721,VALID,0,VALID,92.5626,VALID,0,VALID,23.5646,VALID,88,VALID,0.246094,
2009-07-26, 02:43:04,VALID,999.713,VALID,0,VALID,92.4328,VALID,0,VALID,23.5433,VALID,88,VALID,0.209766,
2009-07-26, 02:44:04,VALID,999.7,VALID,0,VALID,92.3947,VALID,0,VALID,23.5433,VALID,88,VALID,0.315234,
2009-07-26, 02:45:04,VALID,999.706,VALID,0,VALID,92.326,VALID,0,VALID,23.5841,VALID,88,VALID,0.0230469,
2009-07-26, 02:46:04,VALID,999.717,VALID,0,VALID,92.2955,VALID,0,VALID,23.5841,VALID,88,VALID,0,
2009-07-26, 02:47:04,VALID,999.711,VALID,0,VALID,92.3413,VALID,0,VALID,23.6054,VALID,88,VALID,0.249609,
2009-07-26, 02:48:04,VALID,999.745,VALID,0,VALID,92.3566,VALID,0,VALID,23.6036,VALID,88,VALID,0.278906,
2009-07-26, 02:49:04,VALID,999.734,VALID,0,VALID,92.3794,VALID,0,VALID,23.6036,VALID,88,VALID,0.325781,
2009-07-26, 02:50:04,VALID,999.734,VALID,0,VALID,92.3794,VALID,0,VALID,23.6036,VALID,88,VALID,0.279687,
2009-07-26, 02:51:04,VALID,999.76,VALID,0,VALID,92.4023,VALID,0,VALID,23.6036,VALID,88,VALID,0.260547,
2009-07-26, 02:52:04,VALID,999.767,VALID,0,VALID,92.3566,VALID,0,VALID,23.6036,VALID,88,VALID,0.222656,
2009-07-26, 02:53:04,VALID,999.754,VALID,0,VALID,92.41,VALID,0,VALID,23.6036,VALID,88,VALID,0.331641,
2009-07-26, 02:54:04,VALID,999.777,VALID,0,VALID,92.3871,VALID,0,VALID,23.6036,VALID,88,VALID,0.378516,
2009-07-26, 02:55:04,VALID,999.734,VALID,0,VALID,92.41,VALID,0,VALID,23.5841,VALID,88,VALID,0.38125,
2009-07-26, 02:56:04,VALID,999.744,VALID,0,VALID,92.4176,VALID,0,VALID,23.5841,VALID,5,VALID,0.638672,
2009-07-26, 02:57:04,VALID,999.786,VALID,0,VALID,92.41,VALID,0,VALID,23.5841,VALID,359,VALID,0.395312,
2009-07-26, 02:58:04,VALID,999.778,VALID,0,VALID,92.3871,VALID,0,VALID,23.6036,VALID,359,VALID,0.545703,
2009-07-26, 02:59:04,VALID,999.835,VALID,0,VALID,92.3718,VALID,0,VALID,23.6036,VALID,359,VALID,0.765234,
2009-07-26, 03:00:04,VALID,999.844,VALID,0,VALID,92.265,VALID,0,VALID,23.5646,VALID,7,VALID,0.787891,
2009-07-26, 03:01:04,VALID,999.827,VALID,0,VALID,92.1887,VALID,0,VALID,23.5451,VALID,21,VALID,0.881641,
2009-07-26, 03:02:04,VALID,999.866,VALID,0,VALID,92.2116,VALID,0,VALID,23.5061,VALID,32,VALID,0.671484,
2009-07-26, 03:03:04,VALID,999.866,VALID,0,VALID,92.204,VALID,0,VALID,23.5079,VALID,32,VALID,0.483203,
2009-07-26, 03:04:04,VALID,999.911,VALID,0,VALID,92.1887,VALID,0,VALID,23.5256,VALID,32,VALID,0.326562,
2009-07-26, 03:05:04,VALID,999.926,VALID,0,VALID,92.1429,VALID,0,VALID,23.5256,VALID,32,VALID,0.237891,
2009-07-26, 03:06:04,VALID,999.959,VALID,0,VALID,92.3947,VALID,0,VALID,23.5646,VALID,32,VALID,0.297266,
2009-07-26, 03:07:04,VALID,999.977,VALID,0,VALID,92.471,VALID,0,VALID,23.5823,VALID,32,VALID,0.125781,
2009-07-26, 03:08:04,VALID,1000,VALID,0,VALID,92.5091,VALID,0,VALID,23.5823,VALID,32,VALID,0,
2009-07-26, 03:09:04,VALID,1000.05,VALID,0,VALID,92.4634,VALID,0,VALID,23.5841,VALID,32,VALID,0.220313,
2009-07-26, 03:10:04,VALID,1000.04,VALID,0,VALID,92.4176,VALID,0,VALID,23.5646,VALID,32,VALID,0.302734,
2009-07-26, 03:11:04,VALID,1000.04,VALID,0,VALID,92.2955,VALID,0,VALID,23.5628,VALID,35,VALID,0.453125,
2009-07-26, 03:12:04,VALID,1000.03,VALID,0,VALID,91.4715,VALID,0,VALID,23.5841,VALID,125,VALID,1.08086,
2009-07-26, 03:13:04,VALID,1000.03,VALID,0,VALID,89.8617,VALID,0,VALID,23.6232,VALID,127,VALID,1.34063,
2009-07-26, 03:14:04,VALID,1000.03,VALID,0,VALID,88.5875,VALID,0,VALID,23.7597,VALID,142,VALID,1.81133,
2009-07-26, 03:15:04,VALID,1000.03,VALID,0,VALID,85.3755,VALID,0,VALID,23.8963,VALID,158,VALID,2.47305,
2009-07-26, 03:16:04,VALID,1000.01,VALID,0,VALID,84.0479,VALID,0,VALID,24.1891,VALID,136,VALID,2.31133,
2009-07-26, 03:17:04,VALID,999.983,VALID,0,VALID,82.8577,VALID,0,VALID,24.4037,VALID,148,VALID,2.26133,
2009-07-26, 03:18:04,VALID,999.976,VALID,0,VALID,83.3383,VALID,0,VALID,24.5794,VALID,124,VALID,1.59453,
2009-07-26, 03:19:04,VALID,1000.02,VALID,0,VALID,83.4909,VALID,0,VALID,24.5971,VALID,136,VALID,1.65937,
2009-07-26, 03:20:04,VALID,999.925,VALID,0,VALID,80.9045,VALID,0,VALID,24.7356,VALID,157,VALID,3.25078,
2009-07-26, 03:21:04,VALID,999.927,VALID,0,VALID,78.608,VALID,0,VALID,24.9308,VALID,152,VALID,3.04805,
2009-07-26, 03:22:04,VALID,999.91,VALID,0,VALID,78.8674,VALID,0,VALID,25.1064,VALID,147,VALID,3.34023,
2009-07-26, 03:23:04,VALID,999.89,VALID,0,VALID,78.9132,VALID,0,VALID,25.1455,VALID,159,VALID,2.525,
2009-07-26, 03:24:04,VALID,999.915,VALID,0,VALID,77.5475,VALID,0,VALID,25.165,VALID,160,VALID,2.86992,
2009-07-26, 03:25:04,VALID,999.887,VALID,0,VALID,76.3038,VALID,0,VALID,25.3212,VALID,157,VALID,3.79297,
2009-07-26, 03:26:04,VALID,999.879,VALID,0,VALID,76.7845,VALID,0,VALID,25.4188,VALID,167,VALID,2.8668,
2009-07-26, 03:27:04,VALID,999.883,VALID,0,VALID,76.1436,VALID,0,VALID,25.3993,VALID,168,VALID,3.46406,
2009-07-26, 03:28:04,VALID,999.85,VALID,0,VALID,75.3501,VALID,0,VALID,25.4969,VALID,153,VALID,2.91719,
2009-07-26, 03:29:04,VALID,999.893,VALID,0,VALID,76.6853,VALID,0,VALID,25.4969,VALID,158,VALID,2.20937,
2009-07-26, 03:30:04,VALID,999.875,VALID,0,VALID,75.3959,VALID,0,VALID,25.5164,VALID,164,VALID,3.40273,
2009-07-26, 03:31:04,VALID,999.872,VALID,0,VALID,75.1975,VALID,0,VALID,25.5359,VALID,167,VALID,3.9,
2009-07-26, 03:32:04,VALID,999.864,VALID,0,VALID,74.9992,VALID,0,VALID,25.575,VALID,161,VALID,2.73828,
2009-07-26, 03:33:04,VALID,999.895,VALID,0,VALID,75.2052,VALID,0,VALID,25.614,VALID,175,VALID,3.32305,
2009-07-26, 03:34:04,VALID,999.856,VALID,0,VALID,72.695,VALID,0,VALID,25.7312,VALID,162,VALID,3.61328,
2009-07-26, 03:35:04,VALID,999.849,VALID,0,VALID,73.7784,VALID,0,VALID,25.8093,VALID,166,VALID,2.60508,
2009-07-26, 03:36:04,VALID,999.854,VALID,0,VALID,73.0612,VALID,0,VALID,25.8093,VALID,162,VALID,3.05273,
2009-07-26, 03:37:04,VALID,999.81,VALID,0,VALID,72.4051,VALID,0,VALID,25.8874,VALID,153,VALID,5.53672,
2009-07-26, 03:38:04,VALID,999.861,VALID,0,VALID,72.3746,VALID,0,VALID,25.946,VALID,151,VALID,4.0668,
2009-07-26, 03:39:04,VALID,999.895,VALID,0,VALID,71.871,VALID,0,VALID,25.9264,VALID,146,VALID,3.61094,
2009-07-26, 03:40:04,VALID,999.919,VALID,0,VALID,73.1757,VALID,0,VALID,25.8874,VALID,142,VALID,3.00469,
2009-07-26, 03:41:04,VALID,999.966,VALID,0,VALID,73.7403,VALID,0,VALID,25.7897,VALID,160,VALID,3.06094,
2009-07-26, 03:42:04,VALID,999.906,VALID,0,VALID,72.9544,VALID,0,VALID,25.7116,VALID,158,VALID,2.16484,
2009-07-26, 03:43:04,VALID,999.941,VALID,0,VALID,74.8084,VALID,0,VALID,25.7116,VALID,131,VALID,2.51797,
2009-07-26, 03:44:04,VALID,999.964,VALID,0,VALID,76.6853,VALID,0,VALID,25.575,VALID,103,VALID,1.51367,
2009-07-26, 03:45:04,VALID,999.932,VALID,0,VALID,78.1883,VALID,0,VALID,25.3993,VALID,91,VALID,1.75977,
2009-07-26, 03:46:04,VALID,999.978,VALID,0,VALID,76.8074,VALID,0,VALID,25.1845,VALID,131,VALID,3.41289,